Weather History for Holland, MI

Change the Weather History Date:

Thursday, February 14, 2013

  Actual Average Record
Temperature  
Mean Temperature 33 °F 28 °F  
Max Temperature 41 °F 35 °F 53 °F (1954)
Min Temperature 25 °F 21 °F -4 °F (1970)
Degree Days  
Heating Degree Days 32 37  
Month to date heating degree days 562 534  
Since 1 July heating degree days 3738 4008  
Cooling Degree Days 0 0  
Month to date cooling degree days 0 0  
Year to date cooling degree days 0 0  
Moisture  
Dew Point 29 °F    
Average Humidity 75    
Maximum Humidity 85    
Minimum Humidity 65    
Precipitation  
Precipitation 0.10 in 0.05 in 0.97 in (1950)
Month to date precipitation 1.31 0.76  
Year to date precipitation 4.47 2.85  
Sea Level Pressure  
Sea Level Pressure 29.76 in    
Wind  
Wind Speed 12 mph (WSW)    
Max Wind Speed 28 mph    
Max Gust Speed 36 mph    
Visibility 4 miles    
Events Fog , Rain , Snow    
T = Trace of Precipitation, MM = Missing Value Source: NWS Daily Summary

Daily Weather History Graph

Daily Weather History Graph

Search for Another Location

Airport:

Trip Planner

Search our weather history database for the weather conditions in past years. The results will help you decide how hot, cold, wet, or windy it might be!

Date:

Astronomy

Feb. 14, 2013 Rise Set
Actual Time 7:42 AM EST 6:15 PM EST
Civil Twilight 7:13 AM EST 6:44 PM EST
Nautical Twilight 6:40 AM EST 7:17 PM EST
Astronomical Twilight 6:07 AM EST 7:50 PM EST
Moon 9:36 AM EST (2/14) 11:26 PM EST (2/14)
Length of Visible Light 11h 30m
Length of Day
10h 32m
Waxing Crescent, 21% of the Moon is Illuminated
Feb 14
Waxing Crescent
Feb 17
First Quarter
Feb 25
Full
Mar 4
Last Quarter
Mar 11
New

Hourly Weather History & Observations

Time (EST) Temp. Windchill Dew Point Humidity Pressure Visibility Wind Dir Wind Speed Gust Speed Precip Events Conditions
12:01 AM 28.4 °F 24.6 °F 24.8 °F 86% 29.73 in 2.0 mi South 3.5 mph - N/A   Scattered Clouds
12:10 AM 28.4 °F 24.6 °F 24.8 °F 86% 29.74 in 2.5 mi SSW 3.5 mph - N/A   Mostly Cloudy
12:19 AM 30.2 °F 26.7 °F 26.6 °F 86% 29.73 in 3.0 mi South 3.5 mph - N/A   Overcast
12:53 AM 30.0 °F 26.5 °F 27.0 °F 88% 29.75 in 3.0 mi South 3.5 mph - N/A   Partly Cloudy
1:08 AM 30.2 °F 25.4 °F 26.6 °F 86% 29.73 in 2.5 mi SSE 4.6 mph - N/A   Clear
1:25 AM 28.4 °F - 26.6 °F 93% 29.73 in 1.8 mi Calm Calm - N/A   Clear
1:42 AM 28.4 °F 24.6 °F 24.8 °F 86% 29.73 in 1.0 mi South 3.5 mph - N/A   Clear
1:53 AM 28.0 °F - 23.0 °F 81% 29.75 in 0.8 mi Calm Calm - N/A   Haze
2:01 AM 26.6 °F 21.2 °F 23.0 °F 86% 29.73 in 1.5 mi South 4.6 mph - N/A   Clear
2:10 AM 26.6 °F 22.6 °F 21.2 °F 80% 29.73 in 2.0 mi South 3.5 mph - N/A   Clear
2:16 AM 28.4 °F 24.6 °F 24.8 °F 86% 29.72 in 1.2 mi SSE 3.5 mph - N/A   Partly Cloudy
2:29 AM 28.4 °F 23.3 °F 26.6 °F 93% 29.72 in 0.5 mi SSE 4.6 mph - N/A Fog Light Freezing Fog
2:35 AM 26.6 °F - 24.8 °F 93% 29.72 in 0.8 mi Calm Calm - N/A   Mostly Cloudy
2:42 AM 26.6 °F 22.6 °F 24.8 °F 93% 29.72 in 1.5 mi South 3.5 mph - N/A   Mostly Cloudy
2:45 AM 26.6 °F 22.6 °F 24.8 °F 93% 29.72 in 2.0 mi South 3.5 mph - N/A   Overcast
2:53 AM 28.0 °F 24.2 °F 24.1 °F 85% 29.74 in 2.5 mi South 3.5 mph - N/A   Mostly Cloudy
3:42 AM 30.2 °F 25.4 °F 28.4 °F 93% 29.71 in 3.0 mi South 4.6 mph - N/A   Overcast
3:53 AM 32.0 °F 27.5 °F 28.0 °F 85% 29.73 in 3.0 mi South 4.6 mph - N/A   Overcast
4:53 AM 33.1 °F 26.1 °F 28.9 °F 85% 29.72 in 3.0 mi South 8.1 mph - N/A   Overcast
5:53 AM 34.0 °F 27.2 °F 28.9 °F 82% 29.71 in 5.0 mi South 8.1 mph - N/A   Haze
6:45 AM 35.6 °F 29.2 °F 30.2 °F 81% 29.67 in 5.0 mi SSE 8.1 mph - 0.00 in Rain Light Freezing Rain
6:53 AM 36.0 °F 30.3 °F 30.0 °F 79% 29.69 in 5.0 mi SSE 6.9 mph - 0.00 in Rain Light Freezing Rain
7:00 AM 35.6 °F 29.9 °F 30.2 °F 81% 29.67 in 5.0 mi SSE 6.9 mph - 0.00 in Rain Light Freezing Rain
7:14 AM 35.6 °F 29.9 °F 30.2 °F 81% 29.67 in 5.0 mi SSE 6.9 mph - 0.00 in   Haze
7:31 AM 35.6 °F 28.6 °F 30.2 °F 81% 29.65 in 6.0 mi SSE 9.2 mph - 0.00 in   Haze
7:53 AM 36.0 °F 29.0 °F 30.9 °F 82% 29.67 in 7.0 mi SSE 9.2 mph - 0.00 in   Overcast
8:53 AM 37.9 °F 30.5 °F 30.9 °F 76% 29.65 in 10.0 mi South 11.5 mph - N/A   Overcast
9:53 AM 41.0 °F 32.5 °F 30.9 °F 67% 29.65 in 10.0 mi SSW 17.3 mph 25.3 mph N/A   Mostly Cloudy
10:53 AM 39.9 °F 29.5 °F 32.0 °F 73% 29.65 in 10.0 mi SW 24.2 mph 32.2 mph N/A   Overcast
11:53 AM 39.0 °F 30.6 °F 32.0 °F 76% 29.65 in 10.0 mi SW 15.0 mph 24.2 mph N/A   Overcast
12:53 PM 39.9 °F 30.5 °F 32.0 °F 73% 29.65 in 10.0 mi SW 19.6 mph 28.8 mph N/A   Overcast
1:53 PM 39.0 °F 29.0 °F 30.9 °F 73% 29.66 in 9.0 mi WSW 20.7 mph - N/A   Overcast
2:17 PM 37.4 °F 26.4 °F 32.0 °F 81% 29.64 in 2.0 mi WSW 23.0 mph 31.1 mph 0.02 in Snow Light Snow
2:20 PM 37.4 °F 26.4 °F 32.0 °F 81% 29.64 in 1.8 mi WSW 23.0 mph 27.6 mph 0.02 in Snow Light Snow
2:28 PM 37.4 °F 26.9 °F 32.0 °F 81% 29.64 in 2.0 mi WSW 20.7 mph 31.1 mph 0.03 in Snow Light Snow
2:34 PM 35.6 °F 24.5 °F 32.0 °F 87% 29.64 in 1.8 mi WSW 20.7 mph 31.1 mph 0.04 in Snow Light Snow
2:44 PM 37.4 °F 26.9 °F 32.0 °F 81% 29.65 in 3.0 mi SW 20.7 mph 26.5 mph 0.05 in Snow Light Snow
2:53 PM 37.0 °F 26.7 °F 32.0 °F 82% 29.67 in 6.0 mi WSW 19.6 mph - 0.05 in Snow Light Snow
3:20 PM 37.4 °F 27.2 °F 33.8 °F 87% 29.65 in 10.0 mi WSW 19.6 mph 28.8 mph 0.00 in   Overcast
3:48 PM 37.4 °F 26.9 °F 33.8 °F 87% 29.67 in 10.0 mi WSW 20.7 mph 29.9 mph 0.00 in   Overcast
3:53 PM 37.9 °F 27.6 °F 33.1 °F 83% 29.69 in 10.0 mi WSW 20.7 mph 27.6 mph 0.00 in Rain Light Rain
4:30 PM 37.4 °F 27.5 °F 32.0 °F 81% 29.69 in 9.0 mi West 18.4 mph 33.4 mph 0.00 in   Overcast
4:46 PM 37.4 °F 26.6 °F 32.0 °F 81% 29.70 in 6.0 mi West 21.9 mph 31.1 mph 0.00 in   Haze
4:53 PM 37.0 °F 27.7 °F 32.0 °F 82% 29.73 in 7.0 mi West 16.1 mph 31.1 mph 0.00 in   Overcast
5:53 PM 35.1 °F 24.5 °F 30.0 °F 82% 29.79 in 2.0 mi West 18.4 mph 26.5 mph 0.00 in Snow Light Snow
6:01 PM 35.6 °F 25.9 °F 28.4 °F 75% 29.78 in 6.0 mi West 16.1 mph 31.1 mph 0.00 in   Haze
6:13 PM 35.6 °F 25.2 °F 30.2 °F 81% 29.78 in 2.5 mi West 18.4 mph 29.9 mph 0.00 in Snow Light Snow
6:24 PM 35.6 °F 25.5 °F 30.2 °F 81% 29.79 in 4.0 mi West 17.3 mph 27.6 mph 0.00 in Snow Light Snow
6:44 PM 35.6 °F 25.5 °F 30.2 °F 81% 29.80 in 1.8 mi WNW 17.3 mph 27.6 mph 0.01 in Snow Light Snow
6:49 PM 35.6 °F 27.5 °F 30.2 °F 81% 29.80 in 3.0 mi West 11.5 mph 27.6 mph 0.01 in Snow Light Snow
6:53 PM 36.0 °F 27.1 °F 30.0 °F 79% 29.83 in 5.0 mi WNW 13.8 mph 27.6 mph 0.01 in Snow Light Snow
7:02 PM 35.6 °F 25.5 °F 30.2 °F 81% 29.81 in 6.0 mi West 17.3 mph 23.0 mph 0.00 in Snow Light Snow
7:09 PM 35.6 °F 27.5 °F 30.2 °F 81% 29.82 in 7.0 mi WNW 11.5 mph 23.0 mph 0.00 in Snow Light Snow
7:53 PM 36.0 °F 27.5 °F 28.9 °F 76% 29.86 in 5.0 mi WNW 12.7 mph 18.4 mph 0.00 in Snow Light Snow
8:53 PM 35.1 °F 26.4 °F 30.0 °F 82% 29.88 in 3.0 mi WNW 12.7 mph - 0.00 in Snow Light Snow
8:55 PM 35.6 °F 25.9 °F 30.2 °F 81% 29.86 in 2.5 mi WNW 16.1 mph 26.5 mph 0.00 in Snow Light Snow
8:57 PM 35.6 °F 26.2 °F 30.2 °F 81% 29.86 in 1.8 mi WNW 15.0 mph 26.5 mph 0.00 in Snow Light Snow
9:02 PM 33.8 °F 24.3 °F 30.2 °F 87% 29.86 in 1.2 mi WNW 13.8 mph 26.5 mph 0.00 in Snow Light Snow
9:07 PM 35.6 °F 27.5 °F 30.2 °F 81% 29.86 in 2.0 mi WNW 11.5 mph 21.9 mph 0.00 in Snow Light Snow
9:11 PM 35.6 °F 27.5 °F 30.2 °F 81% 29.86 in 5.0 mi WNW 11.5 mph 21.9 mph 0.00 in Snow Light Snow
9:27 PM 35.6 °F 26.2 °F 28.4 °F 75% 29.87 in 2.5 mi NW 15.0 mph 20.7 mph 0.00 in Snow Light Snow
9:30 PM 33.8 °F 23.2 °F 28.4 °F 81% 29.87 in 1.2 mi NW 17.3 mph 24.2 mph 0.00 in Snow Light Snow
9:42 PM 33.8 °F 25.3 °F 28.4 °F 81% 29.88 in 0.8 mi NNW 11.5 mph 23.0 mph 0.01 in Snow Light Snow
9:53 PM 32.0 °F 24.2 °F 28.0 °F 85% 29.91 in 1.0 mi NNW 9.2 mph 21.9 mph 0.01 in Snow Light Snow
10:06 PM 32.0 °F 24.8 °F 28.4 °F 87% 29.88 in 2.0 mi NW 8.1 mph - 0.00 in Snow Light Snow
10:14 PM 32.0 °F 24.2 °F 26.6 °F 80% 29.89 in 2.0 mi NW 9.2 mph - 0.00 in Snow Light Snow
10:30 PM 32.0 °F 25.6 °F 28.4 °F 87% 29.90 in 1.2 mi NW 6.9 mph - 0.00 in Snow Light Snow
10:42 PM 32.0 °F 26.4 °F 28.4 °F 87% 29.90 in 2.0 mi NW 5.8 mph - 0.01 in Snow Light Snow
10:48 PM 32.0 °F 26.4 °F 28.4 °F 87% 29.90 in 1.5 mi NW 5.8 mph - 0.01 in Snow Light Snow
10:53 PM 32.0 °F 25.6 °F 28.0 °F 85% 29.92 in 1.0 mi NW 6.9 mph - 0.01 in Snow Light Snow
11:05 PM 32.0 °F 27.5 °F 28.4 °F 87% 29.91 in 1.5 mi NNW 4.6 mph - 0.01 in Snow Light Snow
11:11 PM 30.2 °F 24.3 °F 26.6 °F 86% 29.91 in 2.0 mi NW 5.8 mph - 0.01 in Snow Light Snow
11:21 PM 30.2 °F 22.6 °F 26.6 °F 86% 29.91 in 2.0 mi NW 8.1 mph - 0.01 in Snow Light Snow
11:53 PM 30.9 °F 27.5 °F 26.1 °F 82% 29.94 in 2.0 mi NW 3.5 mph - 0.01 in Snow Light Snow